Wind_Speed
6 6 7 8 8 8 7 7 7 7 8 8 8 8 8 8 8 8 8 7 6 5 5 5 5 5 4 4 4 4 3 2 3 3 4 5 5 5 5 6 6 7 7
5 5 6 6 7 7 7 6 6 7 7 7 7 8 8 8 8 8 8 7 6 6 5 5 5 5 5 4 4 4 3 3 3 4 4 5 6 6 7 7 7 7 7
4 4 4 5 5 6 6 6 6 6 6 6 7 7 7 7 8 7 7 8 6 5 4 5 5 5 4 4 4 4 4 4 5 5 5 6 6 7 8 8 9 9 9
3 3 3 4 4 4 5 5 5 5 5 5 6 6 6 6 7 7 7 7 6 5 4 5 5 5 6 5 5 5 5 5 5 5 6 7 7 8 8 9 9 10 10
2 2 3 3 3 3 4 4 4 4 4 5 5 5 5 6 6 7 7 6 5 5 5 5 5 6 6 6 6 6 6 6 6 6 7 8 8 9 9 9 10 10 11
0 1 1 2 2 3 3 4 4 4 4 4 4 4 5 5 6 6 6 5 6 5 5 5 5 6 7 7 7 7 7 7 8 8 8 9 9 9 10 10 11 10 10
2 2 2 3 3 3 4 4 4 5 5 5 5 4 5 5 5 6 6 6 6 6 6 6 7 6 7 7 8 8 9 9 9 10 10 10 10 10 11 11 12 12 11
4 4 4 4 4 5 4 5 5 5 6 5 5 5 5 6 6 6 6 6 7 7 7 7 8 8 7 8 8 9 10 11 11 12 12 11 11 12 12 13 13 13 13
6 6 6 6 6 6 6 6 6 6 7 7 7 7 6 6 6 7 7 7 7 7 8 9 8 9 9 9 10 11 11 12 13 13 13 13 13 14 14 15 15 15 15
8 8 8 8 8 8 8 8 8 8 7 7 8 8 7 7 7 7 8 8 8 9 9 10 10 10 11 12 12 13 13 13 14 14 15 15 15 15 16 16 16 16 17
9 10 10 10 10 11 10 10 10 9 9 9 9 9 8 8 8 9 9 10 10 11 11 11 11 11 12 13 14 15 15 15 16 16 16 16 17 17 18 18 18 18 19
11 11 11 11 12 11 11 11 11 11 11 11 11 11 11 10 10 11 11 12 12 12 12 12 12 13 14 15 15 16 16 17 17 17 17 18 18 19 19 20 20 20 20
12 12 13 13 13 13 13 13 12 12 12 12 12 13 13 12 12 13 13 13 14 14 14 14 15 15 15 16 16 17 17 17 18 19 19 19 19 20 21 22 22 22 22
15 15 15 15 15 15 15 15 15 15 15 14 15 15 15 15 14 14 15 15 16 16 16 16 17 17 17 18 18 18 18 19 20 20 20 20 21 21 22 23 23 23 24
18 18 19 18 19 18 18 18 19 18 18 17 17 17 17 18 18 18 18 17 17 18 18 18 18 19 19 20 20 20 20 21 21 21 22 22 23 24 24 25 25 25 26
22 22 22 22 21 22 22 20 20 20 20 19 18 18 19 19 20 21 21 19 19 20 20 20 21 20 21 21 21 22 22 23 23 24 24 24 25 25 26 27 27 27 28
24 24 24 24 24 24 24 23 23 22 22 22 21 21 21 21 22 22 22 21 21 22 22 22 22 22 22 23 24 24 25 24 25 25 26 26 26 26 27 28 28 28 29
25 25 25 25 25 26 25 25 25 24 24 24 23 22 22 23 23 23 23 23 23 24 24 24 24 24 25 25 26 26 26 26 26 27 28 28 28 28 28 28 29 29 30
27 27 26 27 27 27 27 26 26 25 24 24 25 25 25 25 25 25 25 24 25 25 26 26 27 27 27 27 28 28 28 28 28 28 29 29 29 29 29 29 30 30 29
30 29 28 28 28 27 27 26 27 27 26 26 27 27 27 27 26 26 27 28 28 28 28 28 29 29 29 28 28 29 30 30 29 29 29 29 29 30 29 30 30 30 29
33 32 30 29 29 28 28 27 28 28 28 29 28 28 28 28 28 28 29 29 30 30 30 30 30 30 30 30 30 31 31 31 30 30 30 30 29 30 30 30 30 30 30
33 32 32 31 30 30 30 30 30 30 30 30 30 30 30 30 30 31 31 31 31 32 32 31 31 31 31 31 31 31 32 32 31 31 31 31 30 31 31 31 31 31 31
34 35 34 33 32 32 32 32 31 31 32 32 32 32 32 32 32 33 33 33 33 32 32 32 32 32 32 32 32 32 32 33 33 33 32 32 32 32 32 32 33 32 31
35 35 34 34 33 33 34 34 33 33 34 34 34 34 34 34 34 34 34 34 33 33 33 33 33 33 32 31 32 33 33 34 34 34 33 33 33 33 33 33 33 33 33
35 36 36 35 34 34 34 35 34 34 34 34 35 36 36 36 35 35 35 34 34 34 33 33 33 33 33 32 33 34 34 35 35 35 35 34 34 34 35 34 34 33 33
37 36 37 37 36 36 35 35 34 34 34 34 35 35 34 34 34 34 34 35 34 34 33 33 33 33 32 33 33 33 34 35 35 35 35 35 34 35 34 34 33 33 33
Wind_Direction
41 43 47 50 53 58 61 58 58 59 60 61 59 59 55 52 46 42 41 40 44 46 52 54 53 43 38 33 22 19 15 6 347 340 335 334 335 328 322 319 319 315 312
38 44 40 42 49 53 53 53 57 57 56 57 57 55 52 49 45 41 36 34 37 43 43 45 38 29 26 26 18 8 358 347 331 326 325 323 324 319 321 323 321 320 319
42 48 42 39 42 47 48 46 48 47 47 47 49 49 48 45 42 38 31 30 33 34 28 18 16 18 14 11 8 2 354 340 335 326 320 321 320 317 318 320 319 318 318
41 55 46 36 32 35 39 39 37 36 36 33 34 37 35 30 27 24 24 22 28 29 14 4 4 1 358 351 348 346 343 342 330 320 315 314 312 314 315 314 312 313 311
49 60 55 46 34 23 22 23 20 18 19 16 13 17 15 13 13 13 11 11 15 10 0 354 351 343 338 335 334 335 337 335 329 317 311 310 310 311 310 310 308 305 303
353 15 22 6 3 1 359 360 354 352 352 352 353 356 355 353 354 357 358 357 357 351 347 342 334 329 326 325 329 330 326 325 325 322 316 310 308 310 308 310 309 305 301
303 315 316 330 327 320 325 331 334 331 329 328 326 330 337 335 337 339 343 342 340 337 330 328 326 321 317 318 322 323 321 317 317 317 315 312 308 306 306 305 304 300 301
296 308 314 309 304 301 301 305 310 317 318 315 313 311 313 318 321 323 324 326 328 330 331 322 314 316 311 308 312 314 315 314 313 313 312 310 310 308 305 305 308 303 303
286 288 295 296 291 288 288 291 295 298 305 304 303 304 301 302 305 307 309 310 317 320 320 316 308 306 307 306 307 309 309 310 309 308 306 304 304 306 305 302 303 303 300
282 287 287 288 289 287 286 288 287 286 293 300 305 301 293 292 295 299 301 304 306 309 310 309 303 301 303 304 305 305 304 305 305 305 305 304 303 303 304 305 305 303 302
274 276 282 286 289 293 289 290 282 282 286 291 297 295 288 288 291 294 296 297 298 300 302 304 301 300 300 302 303 303 303 302 301 301 301 300 300 301 300 300 302 301 300
268 273 280 286 289 294 293 289 286 285 286 287 291 290 285 287 289 291 293 294 294 295 296 297 300 301 299 298 298 298 299 300 300 299 298 297 297 297 297 296 299 300 300
272 273 277 281 287 292 294 291 290 287 286 286 290 293 289 287 289 290 291 291 291 291 292 291 292 296 298 297 297 299 300 301 302 300 299 299 299 299 298 297 296 298 298
278 277 277 278 283 288 289 290 289 286 284 283 286 291 291 290 288 288 290 289 289 290 290 289 290 292 295 296 295 295 298 299 302 303 300 299 298 297 297 298 296 295 295
274 272 271 275 280 282 283 282 284 285 285 285 286 287 287 288 288 289 291 291 290 289 289 289 290 290 292 292 293 293 294 297 298 300 300 298 297 296 296 296 297 295 295
272 269 270 272 276 279 279 277 278 279 281 283 283 283 285 286 287 288 289 288 290 291 290 292 291 289 289 290 290 294 293 292 294 298 300 299 298 298 298 296 297 296 295
272 271 271 273 276 278 275 275 276 276 278 279 281 282 283 283 285 287 287 288 289 289 290 291 290 290 288 286 287 290 290 290 292 295 296 298 299 298 299 299 298 297 297
269 269 271 273 275 276 275 275 274 275 277 278 280 280 281 281 282 284 285 285 287 288 288 288 288 288 287 286 285 287 289 289 289 290 292 294 297 299 298 297 297 297 297
270 269 270 271 273 274 275 274 273 274 276 278 280 281 282 283 282 282 283 284 285 286 286 287 287 286 286 285 285 286 287 289 289 290 291 292 295 296 298 297 296 297 299
268 268 269 269 269 271 271 272 273 275 276 277 279 279 281 281 280 281 282 282 282 283 284 285 286 285 284 285 286 287 286 287 288 289 291 292 293 294 295 296 296 296 296
268 268 268 267 267 269 271 272 272 274 275 275 276 277 278 278 279 280 282 283 282 282 283 284 284 284 283 284 285 286 287 287 288 289 291 291 292 294 295 296 297 297 296
267 267 268 267 267 269 271 272 273 274 275 275 275 275 277 277 278 279 280 281 282 283 282 282 282 282 283 283 284 285 286 285 286 287 290 289 291 293 294 295 296 296 295
267 267 267 267 268 267 269 271 272 272 273 274 275 275 276 276 276 277 279 280 281 281 282 281 281 282 282 283 283 284 284 283 283 284 286 288 288 290 291 292 294 295 295
267 266 267 267 266 267 270 272 272 273 273 273 273 274 274 274 274 276 277 278 279 280 281 281 280 280 281 282 282 283 283 283 282 282 283 285 287 288 290 291 293 293 294
266 268 268 267 267 269 270 270 271 272 273 273 274 275 275 274 274 275 276 277 278 279 279 279 279 278 279 281 282 283 284 284 283 283 283 285 286 287 288 289 290 292 294
265 267 268 268 269 269 270 270 271 271 272 273 275 275 275 275 275 275 275 276 276 277 277 276 276 279 281 281 282 283 286 287 285 285 285 286 286 287 288 288 289 291 292
Height
5912 5912 5911 5911 5910 5909 5909 5908 5907 5907 5906 5906 5905 5904 5904 5903 5902 5902 5900 5899 5898 5898 5897 5896 5896 5895 5895 5894 5894 5893 5892 5892 5891 5891 5890 5889 5888 5888 5887 5885 5884 5883 5881
5913 5912 5912 5911 5911 5910 5909 5909 5908 5908 5907 5907 5906 5905 5905 5904 5903 5902 5901 5900 5899 5898 5897 5897 5896 5895 5895 5894 5893 5892 5891 5891 5890 5890 5889 5888 5888 5886 5884 5883 5882 5881 5879
5913 5913 5913 5912 5912 5911 5910 5909 5909 5908 5908 5907 5907 5906 5905 5904 5904 5902 5901 5900 5899 5898 5898 5897 5896 5895 5894 5893 5892 5892 5891 5890 5889 5888 5888 5887 5886 5884 5883 5882 5880 5879 5878
5913 5913 5913 5913 5912 5911 5911 5910 5909 5909 5908 5907 5907 5906 5905 5905 5904 5903 5902 5901 5899 5898 5898 5897 5896 5895 5894 5893 5892 5891 5890 5889 5888 5887 5886 5886 5885 5883 5882 5881 5879 5878 5876
5913 5913 5912 5912 5912 5912 5911 5910 5909 5909 5908 5907 5907 5906 5905 5904 5903 5902 5901 5900 5899 5898 5897 5896 5895 5894 5893 5892 5891 5890 5889 5888 5887 5886 5885 5884 5883 5882 5880 5879 5878 5876 5874
5912 5912 5912 5912 5911 5911 5910 5910 5909 5908 5908 5907 5906 5905 5904 5903 5902 5901 5900 5899 5898 5897 5896 5895 5894 5893 5892 5891 5890 5889 5888 5887 5885 5884 5883 5882 5881 5879 5878 5877 5875 5873 5871
5910 5910 5910 5910 5910 5910 5909 5908 5908 5908 5907 5906 5905 5904 5903 5902 5901 5900 5899 5898 5897 5896 5895 5894 5893 5892 5891 5890 5888 5887 5886 5885 5884 5882 5881 5879 5878 5877 5875 5874 5872 5871 5869
5908 5909 5909 5909 5909 5908 5907 5907 5907 5906 5905 5904 5903 5902 5901 5901 5900 5899 5898 5897 5896 5895 5893 5892 5891 5890 5889 5888 5887 5886 5884 5883 5881 5880 5878 5877 5875 5874 5872 5871 5869 5867 5865
5906 5907 5907 5907 5907 5907 5906 5905 5905 5904 5903 5902 5901 5900 5900 5899 5898 5897 5896 5895 5894 5893 5891 5890 5889 5888 5887 5886 5884 5883 5882 5881 5879 5877 5876 5874 5872 5871 5869 5867 5865 5864 5862
5904 5904 5904 5905 5904 5904 5903 5903 5902 5902 5901 5900 5899 5898 5897 5896 5896 5895 5894 5893 5891 5890 5889 5888 5886 5885 5884 5883 5882 5880 5879 5878 5876 5874 5872 5871 5869 5867 5865 5863 5861 5859 5858
5900 5900 5901 5901 5901 5901 5900 5900 5900 5899 5898 5897 5896 5895 5894 5893 5893 5892 5891 5890 5889 5887 5886 5885 5884 5883 5881 5880 5879 5877 5875 5874 5872 5870 5868 5867 5865 5863 5861 5859 5857 5855 5853
5896 5897 5897 5897 5897 5897 5897 5896 5896 5896 5895 5894 5892 5891 5890 5890 5889 5888 5887 5886 5885 5884 5883 5881 5880 5879 5877 5876 5875 5873 5871 5870 5868 5866 5864 5862 5860 5858 5856 5854 5852 5850 5848
5893 5893 5893 5893 5893 5893 5893 5893 5892 5892 5891 5890 5888 5887 5886 5886 5885 5884 5883 5882 5881 5880 5878 5877 5876 5874 5873 5872 5870 5868 5867 5865 5863 5861 5859 5857 5855 5852 5850 5848 5846 5844 5842
5888 5889 5889 5889 5889 5889 5889 5888 5888 5887 5887 5886 5884 5883 5882 5882 5881 5880 5879 5878 5877 5875 5874 5872 5871 5870 5868 5867 5865 5864 5862 5860 5858 5855 5853 5851 5849 5847 5844 5842 5840 5837 5835
5883 5883 5884 5885 5884 5884 5884 5884 5883 5882 5881 5880 5880 5879 5878 5877 5876 5875 5874 5873 5871 5870 5869 5867 5866 5864 5863 5861 5860 5858 5856 5854 5852 5850 5847 5845 5843 5840 5838 5836 5833 5830 5828
5877 5878 5878 5878 5878 5878 5878 5878 5877 5877 5876 5875 5874 5873 5872 5871 5870 5869 5868 5867 5866 5864 5863 5862 5860 5858 5857 5855 5854 5852 5850 5848 5846 5844 5841 5839 5836 5833 5830 5828 5825 5822 5820
5870 5870 5870 5871 5871 5871 5870 5870 5870 5870 5869 5868 5867 5866 5866 5865 5864 5863 5861 5860 5859 5858 5857 5855 5853 5852 5850 5849 5847 5845 5843 5841 5839 5837 5834 5832 5829 5826 5822 5820 5817 5815 5812
5863 5863 5863 5863 5863 5863 5862 5862 5862 5862 5862 5861 5860 5859 5859 5858 5857 5856 5855 5854 5852 5851 5850 5848 5846 5845 5843 5841 5840 5838 5835 5834 5832 5829 5827 5824 5822 5818 5815 5812 5809 5806 5804
5854 5855 5856 5855 5855 5855 5854 5854 5854 5854 5854 5853 5853 5852 5851 5850 5850 5849 5848 5846 5845 5844 5842 5840 5839 5837 5835 5833 5831 5830 5827 5825 5823 5821 5819 5816 5814 5810 5807 5804 5802 5799 5796
5847 5847 5847 5847 5847 5846 5846 5846 5846 5846 5846 5845 5845 5844 5843 5842 5842 5841 5840 5838 5837 5836 5834 5832 5830 5829 5827 5825 5823 5821 5819 5817 5815 5813 5810 5808 5805 5802 5799 5797 5794 5791 5788
5837 5837 5837 5838 5838 5838 5837 5837 5837 5837 5837 5837 5836 5835 5835 5833 5833 5832 5831 5829 5828 5827 5825 5824 5822 5820 5818 5816 5814 5812 5810 5808 5806 5804 5801 5799 5797 5794 5791 5788 5786 5783 5779
5828 5827 5827 5828 5829 5829 5828 5828 5828 5828 5828 5827 5827 5826 5825 5824 5823 5822 5821 5820 5819 5817 5815 5814 5812 5810 5809 5807 5805 5803 5801 5799 5797 5795 5792 5790 5787 5785 5783 5780 5777 5774 5770
5818 5818 5818 5818 5819 5819 5818 5819 5818 5818 5818 5818 5817 5816 5816 5815 5813 5812 5811 5810 5808 5807 5805 5804 5803 5801 5799 5797 5795 5793 5791 5789 5787 5785 5783 5781 5779 5776 5773 5771 5768 5765 5762
5807 5807 5808 5809 5809 5809 5809 5809 5808 5807 5807 5807 5807 5806 5805 5804 5803 5802 5800 5799 5798 5797 5796 5794 5793 5791 5789 5787 5785 5783 5781 5779 5777 5775 5773 5771 5768 5766 5763 5761 5758 5755 5753
5797 5796 5797 5798 5798 5798 5798 5798 5797 5797 5797 5796 5796 5795 5794 5793 5792 5791 5790 5789 5788 5787 5786 5784 5782 5781 5779 5777 5775 5773 5771 5768 5766 5763 5762 5760 5758 5756 5753 5750 5748 5745 5742
5786 5785 5786 5786 5786 5787 5787 5786 5785 5785 5785 5785 5784 5783 5783 5782 5781 5780 5779 5777 5777 5776 5775 5773 5772 5770 5768 5766 5764 5762 5760 5758 5755 5753 5751 5749 5747 5745 5743 5740 5737 5735 5732